Hourly Weather Musiivka

Today, 6 December, Sunday

Time Temperature Precipitation Wind Pressure Humidity
00:00 -11°C° 0 mm 5 mps 770 mmHg 58%
01:00 -11°C° 0 mm 5 mps 770 mmHg 59%
02:00 -11°C° 0 mm 5 mps 770 mmHg 60%
03:00 -11°C° 0 mm 5 mps 770 mmHg 60%
04:00 -11°C° 0 mm 5 mps 770 mmHg 65%
05:00 -12°C° 0 mm 5 mps 770 mmHg 70%
06:00 -12°C° 0 mm 5 mps 770 mmHg 75%
07:00 -12°C° 0 mm 5 mps 770 mmHg 75%
08:00 -12°C° 0 mm 6 mps 770 mmHg 75%
09:00 -12°C° 0 mm 6 mps 770 mmHg 75%
10:00 -11°C° 0 mm 6 mps 770 mmHg 70%
11:00 -10°C° 0 mm 6 mps 770 mmHg 66%
12:00 -11°C° 0 mm 7 mps 770 mmHg 61%
13:00 -11°C° 0 mm 7 mps 770 mmHg 61%
14:00 -9°C° 0 mm 7 mps 770 mmHg 62%
15:00 -9°C° 0 mm 7 mps 770 mmHg 63%
16:00 -10°C° 0 mm 6 mps 770 mmHg 65%
17:00 -10°C° 0 mm 6 mps 770 mmHg 67%
18:00 -11°C° 0 mm 6 mps 770 mmHg 69%
19:00 -11°C° 0 mm 6 mps 770 mmHg 68%
20:00 -12°C° 0 mm 7 mps 771 mmHg 67%
21:00 -12°C° 0 mm 7 mps 771 mmHg 67%
22:00 -13°C° 0 mm 7 mps 771 mmHg 67%
23:00 -12°C° 0 mm 6 mps 771 mmHg 67%

Tomorrow, 7 December, Monday

Time Temperature Precipitation Wind Pressure Humidity
00:00 -12°C° 0 mm 6 mps 771 mmHg 67%
01:00 -12°C° 0 mm 6 mps 771 mmHg 67%
02:00 -12°C° 0 mm 6 mps 771 mmHg 66%
03:00 -12°C° 0 mm 6 mps 771 mmHg 66%
04:00 -14°C° 0 mm 6 mps 771 mmHg 65%
05:00 -14°C° 0 mm 6 mps 770 mmHg 65%
06:00 -14°C° 0 mm 6 mps 770 mmHg 64%
07:00 -14°C° 0 mm 6 mps 770 mmHg 65%
08:00 -14°C° 0 mm 6 mps 771 mmHg 65%
09:00 -14°C° 0 mm 7 mps 771 mmHg 66%
10:00 -13°C° 0 mm 7 mps 770 mmHg 62%
11:00 -12°C° 0 mm 7 mps 770 mmHg 57%
12:00 -11°C° 0 mm 7 mps 770 mmHg 53%
13:00 -9°C° 0 mm 7 mps 770 mmHg 54%
14:00 -9°C° 0 mm 7 mps 769 mmHg 56%
15:00 -9°C° 0 mm 7 mps 769 mmHg 57%
16:00 -9°C° 0 mm 7 mps 769 mmHg 59%
17:00 -10°C° 0 mm 6 mps 769 mmHg 62%
18:00 -11°C° 0 mm 6 mps 769 mmHg 65%
19:00 -11°C° 0 mm 6 mps 769 mmHg 65%
20:00 -11°C° 0 mm 6 mps 769 mmHg 65%
21:00 -11°C° 0 mm 6 mps 769 mmHg 65%
22:00 -11°C° 0 mm 6 mps 769 mmHg 66%
23:00 -12°C° 0 mm 6 mps 769 mmHg 67%

Day after tomorrow, 8 December, Tuesday

Time Temperature Precipitation Wind Pressure Humidity
00:00 -12°C° 0 mm 6 mps 769 mmHg 67%
01:00 -12°C° 0 mm 6 mps 769 mmHg 67%
02:00 -12°C° 0 mm 6 mps 768 mmHg 67%
03:00 -12°C° 0 mm 6 mps 768 mmHg 67%
04:00 -12°C° 0 mm 6 mps 768 mmHg 68%
05:00 -12°C° 0 mm 6 mps 768 mmHg 68%
06:00 -12°C° 0 mm 6 mps 768 mmHg 68%
07:00 -12°C° 0 mm 6 mps 768 mmHg 67%
08:00 -12°C° 0 mm 6 mps 768 mmHg 67%
09:00 -12°C° 0 mm 6 mps 767 mmHg 66%
10:00 -11°C° 0 mm 6 mps 767 mmHg 61%
11:00 -11°C° 0 mm 7 mps 767 mmHg 56%
12:00 -8°C° 0 mm 7 mps 767 mmHg 51%
13:00 -8°C° 0 mm 7 mps 767 mmHg 51%
14:00 -8°C° 0 mm 6 mps 767 mmHg 51%
15:00 -6°C° 0 mm 6 mps 766 mmHg 51%
16:00 -8°C° 0 mm 6 mps 766 mmHg 52%
17:00 -9°C° 0 mm 6 mps 766 mmHg 53%
18:00 -9°C° 0 mm 6 mps 766 mmHg 55%
19:00 -10°C° 0 mm 6 mps 766 mmHg 54%
20:00 -10°C° 0 mm 6 mps 766 mmHg 54%
21:00 -10°C° 0 mm 6 mps 767 mmHg 54%
22:00 -10°C° 0 mm 6 mps 766 mmHg 55%
23:00 -10°C° 0 mm 6 mps 766 mmHg 56%

9 December, Wednesday

Time Temperature Precipitation Wind Pressure Humidity
00:00 -11°C° 0 mm 6 mps 766 mmHg 57%
01:00 -11°C° 0 mm 6 mps 766 mmHg 58%
02:00 -11°C° 0 mm 5 mps 766 mmHg 59%
03:00 -11°C° 0 mm 5 mps 767 mmHg 59%
04:00 -11°C° 0 mm 5 mps 767 mmHg 60%
05:00 -11°C° 0 mm 5 mps 767 mmHg 61%
06:00 -11°C° 0 mm 5 mps 767 mmHg 62%
07:00 -11°C° 0 mm 6 mps 767 mmHg 61%
08:00 -11°C° 0 mm 6 mps 767 mmHg 61%
09:00 -11°C° 0 mm 6 mps 767 mmHg 61%
10:00 -10°C° 0 mm 6 mps 767 mmHg 57%
11:00 -9°C° 0 mm 6 mps 767 mmHg 54%
12:00 -8°C° 0 mm 6 mps 767 mmHg 50%
13:00 -8°C° 0 mm 6 mps 767 mmHg 51%
14:00 -8°C° 0 mm 6 mps 766 mmHg 52%
15:00 -6°C° 0 mm 6 mps 766 mmHg 53%
16:00 -8°C° 0 mm 6 mps 766 mmHg 57%
17:00 -8°C° 0 mm 5 mps 766 mmHg 61%
18:00 -8°C° 0 mm 5 mps 767 mmHg 65%
19:00 -8°C° 0 mm 5 mps 767 mmHg 65%
20:00 -10°C° 0 mm 5 mps 767 mmHg 65%
21:00 -10°C° 0 mm 5 mps 767 mmHg 65%
22:00 -10°C° 0 mm 5 mps 767 mmHg 67%
23:00 -10°C° 0 mm 5 mps 767 mmHg 68%

10 December, Thursday

Time Temperature Precipitation Wind Pressure Humidity
00:00 -10°C° 0 mm 5 mps 767 mmHg 70%
01:00 -11°C° 0 mm 5 mps 767 mmHg 71%
02:00 -11°C° 0 mm 5 mps 767 mmHg 72%
03:00 -11°C° 0 mm 5 mps 767 mmHg 73%
04:00 -11°C° 0 mm 5 mps 767 mmHg 74%
05:00 -11°C° 0 mm 5 mps 767 mmHg 76%
06:00 -11°C° 0 mm 5 mps 767 mmHg 77%
07:00 -11°C° 0 mm 5 mps 767 mmHg 76%
08:00 -11°C° 0 mm 5 mps 767 mmHg 76%
09:00 -11°C° 0 mm 5 mps 768 mmHg 76%
10:00 -10°C° 0 mm 5 mps 767 mmHg 71%
11:00 -8°C° 0 mm 5 mps 767 mmHg 65%
12:00 -7°C° 0 mm 5 mps 767 mmHg 60%
13:00 -6°C° 0 mm 5 mps 767 mmHg 60%
14:00 -6°C° 0 mm 5 mps 767 mmHg 59%
15:00 -6°C° 0 mm 5 mps 767 mmHg 59%
16:00 -7°C° 0 mm 5 mps 767 mmHg 64%
17:00 -7°C° 0 mm 5 mps 767 mmHg 69%
18:00 -8°C° 0 mm 5 mps 767 mmHg 74%
19:00 -8°C° 0 mm 5 mps 767 mmHg 73%
20:00 -8°C° 0 mm 5 mps 767 mmHg 73%
21:00 -8°C° 0 mm 5 mps 767 mmHg 73%
22:00 -10°C° 0 mm 5 mps 767 mmHg 74%
23:00 -10°C° 0 mm 5 mps 767 mmHg 75%

11 December, Friday

Time Temperature Precipitation Wind Pressure Humidity
00:00 -10°C° 0 mm 5 mps 766 mmHg 76%
01:00 -10°C° 0 mm 5 mps 766 mmHg 77%
02:00 -10°C° 0 mm 5 mps 766 mmHg 79%
03:00 -11°C° 0 mm 5 mps 766 mmHg 80%
04:00 -11°C° 0 mm 5 mps 766 mmHg 81%
05:00 -11°C° 0 mm 5 mps 766 mmHg 81%
06:00 -11°C° 0 mm 5 mps 765 mmHg 82%
07:00 -11°C° 0 mm 5 mps 765 mmHg 82%
08:00 -11°C° 0 mm 5 mps 765 mmHg 82%
09:00 -11°C° 0 mm 6 mps 765 mmHg 82%
10:00 -10°C° 0 mm 6 mps 765 mmHg 78%
11:00 -9°C° 0 mm 6 mps 765 mmHg 74%
12:00 -8°C° 0 mm 6 mps 765 mmHg 70%
13:00 -6°C° 0 mm 6 mps 765 mmHg 71%
14:00 -6°C° 0 mm 6 mps 764 mmHg 71%
15:00 -6°C° 0 mm 6 mps 764 mmHg 72%
16:00 -6°C° 0 mm 6 mps 764 mmHg 76%
17:00 -6°C° 0 mm 6 mps 764 mmHg 80%
18:00 -8°C° 0 mm 6 mps 764 mmHg 84%
19:00 -6°C° 0 mm 6 mps 764 mmHg 84%
20:00 -6°C° 0 mm 6 mps 764 mmHg 83%
21:00 -6°C° 0 mm 6 mps 764 mmHg 83%
22:00 -6°C° 0 mm 6 mps 764 mmHg 83%
23:00 -8°C° 0 mm 6 mps 763 mmHg 82%
Show more

We Need Your Consent

Meteoprog and our Service Providers may store and access personal data such as cookies, device identifiers or other similar technologies on your device and process such data to personalise content and ads, as well as provide social media features and to analyse the traffic.

  • Store and/or access information on your device

    Cookies, device identifiers or other information can be stored or accessed on your device for the purposes indicated above.

  • Personalised ads and content, ad and content measurement, audience insights, and products development

    Ads and content can be personalised based on a profile. More data can be added to better personalise ads and content. Ad and content performance can be measured. Insights about the audience who saw the ads and content can be derived. Such data can be used to develop or improve user’s experience, systems and software.

By clicking ‘I Agree’ you will allow the use of indicated cookies, device identifiers, web beacons or other similar technologies. Your settings can be changed in the browser on your device.

For certain purposes, legitimate interests may be relied on, rather than consent. You can read more about this in our Privacy and Cookie Policy.